DW6949 Weather Reports


Display with metric or nautical units.
time (UTC)temp
F
wind
direction
speed
MPH
gust
MPH
rain 1hr
in
rain 24hr
in
rain mn
in
humidity
%
barometer
mb
20260509200050 90 136 0.0 3.0 0.00 0.00 0.00 62 1009.6
20260509194550 88 149 2.0 7.0 0.00 0.01 0.00 62 1009.9
20260509193051 87 148 2.0 5.0 0.00 0.01 0.00 64 1009.9
20260509191550 87 167 2.0 5.0 0.00 0.01 0.00 66 1009.9
20260509190049 87 117 0.0 3.0 0.00 0.01 0.00 65 1009.9
20260509184546 85 0 0.0 4.0 0.00 0.03 0.00 68 1010.1
20260509183053 86 149 1.0 4.0 0.00 0.03 0.00 68 1010.3
20260509181604 86 129 1.0 5.0 0.00 0.03 0.00 66 1010.5
20260509180048 85 126 2.0 7.0 0.00 0.03 0.00 65 1010.9
20260509174556 86 133 2.0 9.0 0.00 0.06 0.00 70 1011.2
20260509173047 84 85 3.0 7.0 0.00 0.06 0.00 72 1011.3
20260509171556 83 123 3.0 7.0 0.00 0.06 0.00 75 1011.6
20260509170048 82 0 0.0 2.0 0.00 0.06 0.00 80 1011.9
20260509164547 81 0 1.0 3.0 0.00 0.07 0.00 84 1011.9
20260509163055 80 139 0.0 0.0 0.00 0.07 0.00 86 1011.9
20260509161550 79 149 1.0 2.0 0.00 0.07 0.00 86 1011.8
20260509160046 79 146 1.0 2.0 0.00 0.07 0.00 86 1011.8
20260509154552 79 143 0.0 1.0 0.00 0.07 0.00 86 1011.7
20260509153050 78 0 0.0 1.0 0.00 0.07 0.00 89 1011.5
20260509151545 77 124 0.0 1.0 0.00 0.07 0.00 90 1011.7
20260509150049 77 124 1.0 4.0 0.00 0.07 0.00 90 1011.6
20260509144548 76 128 0.0 1.0 0.00 0.07 0.00 92 1011.4
20260509143054 76 0 0.0 1.0 0.00 0.07 0.00 94 1011.2
20260509141549 75 0 0.0 1.0 0.00 0.07 0.00 94 1010.8
20260509140050 75 0 0.0 2.0 0.00 0.07 0.00 94 1010.5
20260509134554 75 124 0.0 2.0 0.00 0.07 0.00 95 1011.0
20260509133100 75 127 0.0 2.0 0.00 0.07 0.00 95 1011.5
20260509131551 75 0 0.0 1.0 0.00 0.07 0.00 96 1011.8
20260509130049 75 137 0.0 1.0 0.00 0.07 0.00 96 1011.9
20260509124549 74 124 0.0 4.0 0.00 0.07 0.00 96 1011.2
20260509123047 74 0 0.0 1.0 0.00 0.07 0.00 96 1011.6
20260509121549 74 0 0.0 0.0 0.00 0.07 0.00 96 1011.5
20260509120051 74 0 0.0 2.0 0.00 0.07 0.00 95 1011.5
20260509114558 74 152 1.0 2.0 0.00 0.07 0.00 96 1011.2
20260509113047 73 0 0.0 0.0 0.00 0.07 0.00 95 1011.1
20260509111544 74 0 0.0 0.0 0.00 0.07 0.00 95 1010.8
20260509110048 74 0 0.0 2.0 0.00 0.07 0.00 95 1010.9
20260509104549 73 136 0.0 1.0 0.00 0.07 0.00 95 1010.5
20260509103052 73 0 0.0 0.0 0.00 0.07 0.00 95 1010.6
20260509101549 74 0 0.0 0.0 0.00 0.07 0.00 95 1010.7
20260509094547 74 0 0.0 1.0 0.00 0.07 0.00 95 1010.1
20260509093047 74 0 0.0 0.0 0.00 0.07 0.00 95 1010.1
20260509091550 74 136 0.0 1.0 0.00 0.07 0.00 95 1010.2
20260509090046 74 0 0.0 1.0 0.00 0.07 0.00 95 1010.7
20260509084550 74 136 0.0 1.0 0.00 0.07 0.00 95 1010.6
20260509083054 75 0 0.0 1.0 0.00 0.07 0.00 94 1010.5
20260509081550 75 132 0.0 0.0 0.00 0.07 0.00 94 1010.3
20260509080129 75 0 0.0 1.0 0.00 0.07 0.00 94 1010.2
20260509074550 75 122 1.0 4.0 0.00 0.07 0.00 94 1010.3
20260509073149 75 118 2.0 6.0 0.00 0.07 0.00 94 1010.2
20260509071551 74 124 0.0 1.0 0.00 0.07 0.00 94 1010.7
20260509070051 74 126 0.0 2.0 0.00 0.07 0.00 94 1010.9
20260509064552 74 0 0.0 0.0 0.00 0.07 0.00 94 1011.2
20260509063052 74 0 0.0 0.0 0.00 0.07 0.00 94 1011.0
20260509061556 74 0 0.0 0.0 0.00 0.07 0.00 94 1011.0
20260509060051 74 0 0.0 0.0 0.00 0.07 0.00 94 1011.1
20260509054559 74 0 0.0 1.0 0.00 0.07 0.00 94 1011.1
20260509053054 74 124 0.0 2.0 0.00 0.07 0.00 93 1011.2
20260509051556 74 127 0.0 1.0 0.00 0.07 0.00 93 1010.9
20260509050047 74 0 0.0 2.0 0.00 0.07 0.00 93 1011.3
20260509044546 74 0 0.0 2.0 0.00 0.07 0.07 93 1011.2
20260509043055 74 125 0.0 3.0 0.00 0.07 0.07 93 1011.3
20260509041553 74 124 0.0 2.0 0.00 0.07 0.07 93 1011.3
20260509034548 74 0 0.0 1.0 0.00 0.07 0.07 93 1011.2
20260509033046 74 131 0.0 3.0 0.00 0.07 0.07 92 1010.8
20260509031549 74 121 1.0 2.0 0.00 0.07 0.07 92 1010.6
20260509030046 74 122 1.0 4.0 0.00 0.07 0.07 92 1010.8
20260509024550 74 124 0.0 2.0 0.00 0.07 0.07 91 1010.7
20260509023048 74 129 0.0 3.0 0.00 0.07 0.07 91 1010.3
20260509021548 74 125 0.0 4.0 0.00 0.07 0.07 90 1010.5
20260509020048 74 0 0.0 2.0 0.00 0.07 0.07 90 1010.0
20260509014553 74 124 1.0 3.0 0.00 0.07 0.07 90 1010.0
20260509013100 74 124 0.0 2.0 0.00 0.07 0.07 90 1009.9
20260509011545 74 123 1.0 4.0 0.00 0.07 0.07 89 1010.1
20260509010051 74 126 0.0 4.0 0.00 0.07 0.07 89 1010.0
20260509004608 74 134 0.0 1.0 0.00 0.07 0.07 89 1009.7
20260509003050 74 136 0.0 1.0 0.00 0.07 0.07 89 1010.0
20260509001549 74 134 0.0 1.0 0.00 0.07 0.07 89 1010.0
20260509000051 74 0 0.0 2.0 0.00 0.07 0.07 89 1010.1
20260508234549 74 145 0.0 2.0 0.00 0.07 0.07 89 1009.9
20260508233106 74 0 0.0 3.0 0.00 0.07 0.07 89 1010.0
20260508231548 74 140 0.0 1.0 0.00 0.07 0.07 89 1010.3
20260508230056 74 0 1.0 5.0 0.00 0.07 0.07 89 1010.3
20260508224547 74 125 1.0 3.0 0.00 0.07 0.07 89 1010.2
20260508223048 74 143 0.0 1.0 0.00 0.07 0.07 89 1010.2
20260508221553 74 0 0.0 3.0 0.00 0.07 0.07 89 1010.2
20260508220054 74 0 1.0 4.0 0.00 0.07 0.07 88 1010.3
20260508214551 74 147 0.0 3.0 0.00 0.07 0.07 89 1010.3
20260508213053 74 127 1.0 4.0 0.00 0.07 0.07 89 1010.4
20260508211555 74 125 0.0 2.0 0.00 0.07 0.07 89 1010.8
20260508210107 73 124 1.0 3.0 0.00 0.07 0.07 90 1010.9
20260508204549 73 118 1.0 4.0 0.00 0.07 0.07 90 1010.9
20260508203048 73 126 0.0 3.0 0.00 0.07 0.07 91 1011.2
20260508201550 73 129 1.0 3.0 0.01 0.07 0.07 93 1011.1